Flag for Germany Weather past 2 weeks in Strausberg, Brandenburg, Germany

Now
59 °F

Sunny.


Feels Like: 59 °F
Forecast: 49 / 65 °F
Wind: 1 mph from North

Location: Berlin-Schoenefeld

Current Time: May 22, 2015 at 10:03:59 PM

Latest Report: May 22, 2015 at 9:20 PM


Visibility: 10 mi

Pressure: 30.18 "Hg

Humidity: 55%

Dew point: 43 °F

Location of StrausbergLocation

Historic Weather in Strausberg — Graph

°F

Strausberg temperature yesterday

Maximum temperature yesterday: 63 °F (at 1:50 PM)
Minimum temperature yesterday: 41 °F (at 4:20 AM)
Average temperature yesterday: 54 °F

Past Weeks' High & Low Weather Summary

 TemperatureHumidityPressure
High82 °F (May 12, 3:50 PM)100% (May 8, 12:50 AM)30.39 "Hg (May 8, 12:50 AM)
Low36 °F (May 11, 4:20 AM)27% (May 11, 3:50 PM)29.59 "Hg (May 19, 2:20 AM)
Average55 °F64%30.04 "Hg
* Reported May 7 8:20 PM — May 22 8:50 PM, Strausberg, Weather by CustomWeather, © 2015

Note: Actual official high and low records may vary slightly from our data, if they occured in-between our weather recording intervals... More about our weather records

Advertising

Strausberg weather history for previous 24 hours

 ConditionsComfort  
Time TempWeatherWind HumidityBarometerVisibility
8:50 PM
Fri, May 22
61 °FSunny.3 mph45%30.18 "Hg10 mi
8:20 PM63 °FSunny.2 mph45%30.18 "Hg10 mi
7:50 PM64 °FPassing clouds.5 mph43%30.18 "HgN/A
7:20 PM64 °FSunny.5 mph40%30.18 "Hg10 mi
6:50 PM64 °FSunny.8 mph43%30.18 "Hg10 mi
6:20 PM64 °FPassing clouds.6 mph40%30.18 "HgN/A
5:50 PM66 °FPassing clouds.7 mph37%30.18 "HgN/A
5:20 PM64 °FSunny.7 mph37%30.21 "Hg10 mi
4:50 PM66 °FPassing clouds.5 mph37%30.21 "HgN/A
4:20 PM66 °FPassing clouds.6 mph35%30.21 "HgN/A
3:50 PM66 °FPassing clouds.8 mph37%30.21 "HgN/A
3:20 PM66 °FPassing clouds.7 mph37%30.24 "HgN/A
2:50 PM66 °FPassing clouds.7 mph32%30.24 "HgN/A
2:20 PM66 °FPassing clouds.8 mph32%30.24 "HgN/A
1:50 PM66 °FPassing clouds.8 mph40%30.24 "HgN/A
1:20 PM64 °FSunny.2 mph40%30.27 "Hg10 mi
12:50 PM64 °FPassing clouds.7 mph37%30.27 "HgN/A
12:20 PM64 °FSunny.6 mph40%30.27 "Hg10 mi
11:50 AM64 °FSunny.5 mph43%30.30 "Hg10 mi
11:20 AM61 °FPartly sunny.6 mph48%30.30 "HgN/A
10:50 AM61 °FPartly sunny.6 mph42%30.30 "HgN/A
10:20 AM61 °FPassing clouds.5 mph45%30.30 "HgN/A
9:50 AM59 °FPassing clouds.6 mph48%30.30 "HgN/A
9:20 AM59 °FSunny.3 mph55%30.30 "Hg10 mi
8:50 AM55 °FSunny.3 mph67%30.30 "Hg10 mi
8:20 AM54 °FSunny.2 mph67%30.30 "Hg10 mi
7:50 AM50 °FPassing clouds.3 mph76%30.30 "HgN/A
7:20 AM46 °FSunny.3 mph87%30.30 "Hg10 mi
6:50 AM45 °FSunny.2 mph87%30.30 "Hg10 mi
6:20 AM43 °FPassing clouds.3 mph87%30.30 "HgN/A
5:50 AM41 °FClear.3 mph93%30.30 "Hg10 mi
5:20 AM39 °FClear.2 mph93%30.30 "Hg10 mi
4:50 AM41 °FClear.1 mph87%30.30 "Hg10 mi
4:20 AM39 °FClear.2 mph93%30.30 "Hg10 mi
3:50 AM41 °FClear.3 mph93%30.30 "Hg10 mi
3:20 AM41 °FClear.2 mph93%30.30 "Hg10 mi
2:50 AM43 °FClear.1 mph87%30.30 "Hg10 mi
2:20 AM43 °FClear.2 mph81%30.30 "Hg10 mi
1:50 AM45 °FClear.2 mph81%30.30 "Hg10 mi
1:20 AM46 °FClear.2 mph76%30.30 "Hg10 mi
12:50 AM45 °FClear.5 mph81%30.30 "Hg10 mi
12:20 AM45 °FClear.5 mph81%30.30 "Hg10 mi
11:20 PM
Thu, May 21
46 °FClear.6 mph71%30.27 "Hg10 mi
10:50 PM50 °FClear.6 mph62%30.27 "Hg10 mi
10:20 PM50 °FClear.7 mph62%30.27 "Hg10 mi
Weather by CustomWeather, © 2015

See weather overviewHow to use our weather pages